PDT,Max TemperatureF,Mean TemperatureF,Min TemperatureF,Max Dew PointF,MeanDew PointF,Min DewpointF,Max Humidity, Mean Humidity, Min Humidity, Max Sea Level PressureIn, Mean Sea Level PressureIn, Min Sea Level PressureIn, Max VisibilityMiles, Mean VisibilityMiles, Min VisibilityMiles, Max Wind SpeedMPH, Mean Wind SpeedMPH, Max Gust SpeedMPH,PrecipitationIn, CloudCover, Events, WindDirDegrees
2013-7-1,64,59,55,58,56,54,100,93,81,30.04,29.98,29.94,10,6,0,10,3,,0.01,7,Fog,320
2013-7-2,63,59,55,57,56,55,100,92,81,30.04,30.01,29.99,10,6,0,13,3,,0.00,7,Fog,285
2013-7-3,63,59,55,56,55,52,100,91,78,30.03,30.00,29.97,10,5,0,9,2,,0.00,5,Fog,293
2013-7-4,64,56,50,54,52,48,100,86,67,30.02,30.00,29.94,10,6,2,21,4,28,0.00,5,,318
2013-7-5,64,58,52,52,51,49,94,83,63,29.93,29.88,29.83,10,7,2,23,6,28,0.00,5,,294
2013-7-6,61,56,51,52,50,48,94,86,69,29.86,29.84,29.80,10,6,2,13,6,44,0.00,6,,225
2013-7-7,59,54,51,52,51,50,100,92,80,29.94,29.88,29.83,10,5,0,12,5,,0.00,7,Fog,257
2013-7-8,60,55,51,53,51,49,100,92,75,30.02,29.95,29.90,10,6,0,10,4,,0.00,5,Fog,221
2013-7-9,62,54,48,54,50,48,100,95,75,30.06,30.02,29.97,10,3,0,8,4,,0.00,4,Fog,249
2013-7-10,57,52,46,54,50,46,100,94,82,30.02,29.99,29.95,10,4,0,9,3,,0.00,6,Fog,229
2013-7-11,57,52,48,52,49,47,96,87,72,30.01,29.99,29.96,10,8,1,12,6,,0.00,5,,262
2013-7-12,59,54,48,50,48,46,93,84,67,30.05,30.02,29.98,10,10,8,22,6,84,0.00,5,,329
2013-7-13,61,52,44,51,48,43,97,85,69,30.03,30.01,29.99,10,10,7,8,5,,0.01,1,,246
2013-7-14,60,52,44,52,49,42,100,92,75,30.01,29.98,29.94,10,7,0,7,2,,0.00,3,Fog,286
2013-7-15,59,54,48,52,50,48,100,91,72,29.94,29.88,29.85,10,5,0,13,5,50,0.00,6,Fog,199
2013-7-16,61,56,51,52,51,49,97,87,72,30.08,29.96,29.86,10,9,2,15,7,20,0.00,7,,358
2013-7-17,61,56,50,54,52,48,100,89,72,30.18,30.13,30.07,10,7,0,18,6,,0.01,6,Fog,333
2013-7-18,57,52,48,52,50,46,97,88,81,30.17,30.12,30.09,10,10,8,10,4,,0.00,6,,269
2013-7-19,57,54,51,52,51,50,100,91,80,30.08,30.04,30.01,10,7,2,8,5,,0.00,8,,268
2013-7-20,57,54,51,52,51,50,100,91,81,29.99,29.94,29.87,10,6,1,39,6,63,0.00,7,,247
2013-7-21,55,52,50,52,50,48,100,94,80,29.89,29.85,29.81,10,5,0,10,4,77,0.00,7,Fog,241
2013-7-22,57,52,48,52,50,48,100,94,77,30.01,29.96,29.89,10,4,0,10,5,,0.00,6,Fog,202
2013-7-23,55,50,46,52,48,45,100,96,86,30.06,30.01,29.96,10,3,0,20,3,60,0.00,4,Fog,282
2013-7-24,61,55,50,52,50,48,100,91,72,30.04,30.01,29.98,10,9,6,6,1,,0.00,2,,251
2013-7-25,61,54,50,54,51,48,100,93,75,30.04,30.00,29.97,10,5,0,7,2,,0.00,3,Fog,257
2013-7-26,57,52,48,52,50,47,100,90,78,30.12,30.07,30.02,10,7,1,9,3,,0.00,4,,230
2013-7-27,61,54,48,52,50,48,100,94,70,30.06,30.01,29.95,10,3,0,12,1,45,0.00,5,Fog,275
2013-7-28,61,55,50,52,50,48,96,87,72,29.95,29.93,29.88,10,7,2,12,4,,0.00,6,,262
2013-7-29,61,55,51,51,50,49,96,87,72,30.10,29.99,29.89,10,9,4,10,5,,0.00,7,,241
2013-7-30,57,54,51,52,51,49,100,92,75,30.18,30.14,30.09,10,8,1,9,3,,0.00,6,,292
2013-7-31,64,57,51,53,51,49,100,88,67,30.18,30.15,30.13,10,10,7,13,3,23,0.00,6,,321